#timestamp,LO_Frequency,Hit,StdDev 
1618714815.7,286047007.2,P
1618714835.5,286047007.1,N
1618714855.3,286047003.9,N
1618714875.2,286047004.0,N
1618714895.0,286046999.8,N
1618714895.9,286046999.8,N
1618714915.8,286047000.5,N
1618714935.6,286047001.0,N
1618714955.4,286046996.5,N
1618714975.3,286046995.0,N
1618714995.1,286046998.8,N
1618715015.8,286046998.5,N
1618715035.7,286046999.0,N
1618715055.5,286046999.9,N
1618715075.4,286047000.3,N
1618715095.2,286047000.3,N
1618715115.0,286047004.2,N
1618715115.9,286047004.2,N
1618715135.8,286047005.4,N
1618715155.6,286047004.2,N
1618715175.5,286047003.9,N
1618715195.3,286047003.7,N
1618715215.1,286047002.5,N
1618715235.9,286047002.6,N
1618715255.7,286047002.6,N
1618715275.5,286047003.1,N
1618715295.4,286047005.9,N
1618715315.2,286047005.4,N
1618715335.1,286047001.3,N
1618715336.0,286047001.3,N
1618715355.8,286047000.2,N
1618715375.7,286047003.8,N
1618715395.5,286047005.0,N
1618715415.3,286047005.9,N
1618715435.2,286047005.8,N
1618715455.0,286047005.3,N
1618715455.9,286047005.3,N
1618715475.8,286047003.6,N
1618715495.6,286047002.1,N
1618715515.4,286047000.6,N
1618715535.3,286047001.6,N
1618715555.1,286047004.9,N
1618715575.8,286047006.8,Y
1618715595.7,286047003.5,P
1618715615.5,286047005.5,P
1618715635.4,286047001.9,N
1618715655.2,286046998.6,N
1618715675.0,286046998.5,N
1618715675.9,286046998.5,N
1618715695.8,286047002.2,N
1618715715.6,286047001.4,N
1618715735.5,286046999.9,N
1618715755.3,286046997.1,N
1618715775.1,286046997.9,N
1618715795.9,286046995.1,N
1618715815.7,286046995.0,N
1618715835.5,286046997.5,N
1618715855.4,286046999.4,N
1618715875.2,286047001.2,N
1618715895.0,286046998.5,N
1618715896.0,286046998.5,N
1618715915.8,286046998.1,N
1618715935.6,286046998.3,N
1618715955.5,286046997.2,N
1618715975.3,286046994.9,N
1618715995.1,286046996.0,N
1618716015.9,286046994.2,N
1618716035.7,286046993.3,N
1618716055.6,286046994.4,N
1618716075.4,286046995.0,N
1618716095.2,286047000.8,N
1618716115.1,286046996.9,N
1618716116.0,286046996.9,N
1618716135.8,286046997.4,N
1618716155.7,286046997.5,N
1618716175.5,286046999.1,N
1618716195.3,286046997.6,N
1618716215.2,286046997.0,N
1618716235.0,286046999.3,N
1618716235.9,286046999.3,N
1618716255.7,286046997.0,N
1618716275.6,286046997.6,N
1618716295.4,286046997.2,N
1618716315.3,286046995.4,N
1618716335.1,286046995.6,N
1618716355.8,286046995.8,N
1618716375.7,286046996.7,N
1618716395.5,286046995.4,N
1618716415.4,286046999.5,N
1618716435.2,286046997.0,N
1618716455.0,286046996.8,N
1618716455.9,286046996.8,N
1618716475.8,286046996.5,N
1618716495.6,286046999.0,N
1618716515.5,286047000.7,N
1618716535.3,286047000.7,N
1618716555.1,286047002.1,N
1618716575.9,286046999.7,N
1618716595.7,286047000.3,N
1618716615.5,286047001.2,N
1618716635.4,286047001.2,N
1618716655.2,286046998.3,N
1618716675.1,286046999.0,N
1618716676.0,286046999.0,N
1618716695.8,286046995.6,N
1618716715.6,286046995.4,N
1618716735.5,286046995.8,N
1618716755.3,286046995.9,N
1618716775.1,286046995.2,N
1618716795.9,286046997.2,N
1618716815.7,286046995.1,N
1618716835.6,286046995.1,N
1618716855.4,286046997.8,N
1618716875.2,286046994.9,N
1618716895.1,286046993.8,N
1618716896.0,286046993.8,N
1618716915.8,286046994.5,N
1618716935.7,286046991.7,Y
1618716955.5,286046993.4,P
1618716975.3,286046995.0,N
1618716995.2,286046997.1,N
1618717015.0,286046996.9,N
1618717015.9,286046996.9,N
1618717035.8,286046999.4,N
1618717055.6,286046998.9,N
1618717075.4,286046996.8,N
1618717095.3,286046995.2,N
1618717115.1,286046993.5,Y
1618717135.9,286046997.3,P
1618717155.7,286046998.1,P
1618717175.5,286047003.8,P
1618717195.4,286047003.3,N
1618717215.2,286047007.6,N
1618717235.0,286047005.5,N
1618717235.9,286047005.5,N
1618717255.8,286047004.3,N
1618717275.6,286047001.8,N
1618717295.5,286047001.6,N
1618717315.3,286047001.6,N
1618717335.1,286047004.0,N
1618717355.9,286047001.7,N
1618717375.7,286047005.9,N
1618717395.5,286047003.6,N
1618717415.4,286047002.9,N
1618717465.2,286047004.3,E
1618717475.2,286047003.8,N
1618717495.0,286047002.7,P
1618717495.9,286047002.7,P
1618717515.7,286046998.5,N
1618717535.6,286046999.7,N
1618717555.4,286046998.7,N
1618717575.3,286046998.0,N
1618717595.1,286046999.3,N
1618717615.8,286047000.4,N
1618717635.7,286047001.0,N
1618717655.5,286047000.9,N
1618717675.4,286046998.6,N
1618717695.2,286047000.6,N
1618717715.0,286047002.6,N
1618717715.9,286047002.6,N
1618717735.8,286047004.3,N
1618717755.6,286047001.5,N
1618717775.5,286046998.2,N
1618717795.3,286047001.0,N
1618717815.1,286047002.8,N
1618717835.9,286046998.5,N
1618717855.7,286046999.2,N
1618717875.6,286047000.2,N
1618717895.4,286046998.6,N
1618717915.2,286047000.7,N
1618717935.1,286046999.3,N
1618717936.0,286046999.3,N
1618717955.8,286046998.4,N
1618717975.7,286047000.1,N
1618717995.5,286046998.9,N
1618718015.3,286046997.5,N
1618718035.2,286046995.2,N
1618718055.0,286046997.5,N
1618718055.9,286046997.5,N
1618718075.7,286046998.1,N
1618718095.6,286047011.9,Y
1618718115.4,286047000.5,P
1618718135.3,286046999.1,N
1618718155.1,286046996.7,P
1618718175.8,286046996.5,N
1618718195.7,286046999.2,N
1618718215.5,286046998.6,N
1618718235.3,286047000.9,N
1618718255.2,286046998.6,N
1618718275.0,286046997.0,N
1618718275.9,286046997.0,N
1618718295.8,286046998.8,N
1618718315.6,286046999.9,N
1618718335.4,286047000.4,N
1618718355.3,286046999.3,N
1618718375.1,286046996.9,N
1618718395.9,286046999.6,N
